| time (UTC) | temp F | wind direction | speed MPH | gust MPH | rain 1hr in | rain 24hr in | rain mn in | humidity % | barometer mb |
| 20260507105200 | 48 | 276 | 0.0 | 0.0 | 0.00 | 0.04 | 0.04 | 92 | 1010.6 |
| 20260507104658 | 48 | 275 | 0.0 | 0.0 | 0.00 | 0.04 | 0.04 | 92 | 1010.4 |
| 20260507104154 | 48 | 281 | 0.0 | 0.0 | 0.00 | 0.04 | 0.04 | 92 | 1010.6 |
| 20260507103650 | 48 | 275 | 0.0 | 1.0 | 0.00 | 0.04 | 0.04 | 91 | 1010.9 |
| 20260507103147 | 48 | 274 | 0.0 | 1.0 | 0.00 | 0.04 | 0.04 | 91 | 1010.7 |
| 20260507102644 | 48 | 317 | 0.0 | 1.0 | 0.00 | 0.04 | 0.04 | 91 | 1010.6 |
| 20260507102140 | 48 | 317 | 0.0 | 0.0 | 0.00 | 0.04 | 0.04 | 91 | 1010.7 |
| 20260507101636 | 48 | 291 | 0.0 | 0.0 | 0.00 | 0.04 | 0.04 | 91 | 1010.4 |
| 20260507101132 | 48 | 280 | 0.0 | 1.0 | 0.00 | 0.04 | 0.04 | 91 | 1010.2 |
| 20260507100630 | 48 | 277 | 0.0 | 1.0 | 0.00 | 0.04 | 0.04 | 91 | 1010.0 |
| 20260507100128 | 48 | 284 | 0.0 | 1.0 | 0.00 | 0.04 | 0.04 | 91 | 1010.1 |
| 20260507095626 | 47 | 286 | 0.0 | 1.0 | 0.00 | 0.04 | 0.04 | 91 | 1010.1 |
| 20260507095122 | 48 | 236 | 1.0 | 2.0 | 0.00 | 0.04 | 0.04 | 91 | 1009.9 |
| 20260507094618 | 48 | 260 | 1.0 | 1.0 | 0.00 | 0.04 | 0.04 | 91 | 1010.1 |
| 20260507094115 | 48 | 273 | 1.0 | 1.0 | 0.00 | 0.04 | 0.04 | 91 | 1010.1 |
| 20260507093612 | 48 | 214 | 1.0 | 2.0 | 0.00 | 0.04 | 0.04 | 91 | 1010.0 |
| 20260507093111 | 48 | 277 | 0.0 | 1.0 | 0.00 | 0.04 | 0.04 | 91 | 1009.8 |
| 20260507092607 | 48 | 232 | 1.0 | 2.0 | 0.07 | 0.04 | 0.04 | 91 | 1010.1 |
| 20260507092104 | 48 | 262 | 0.0 | 1.0 | 0.07 | 0.04 | 0.04 | 91 | 1009.8 |
| 20260507091601 | 48 | 262 | 0.0 | 2.0 | 0.00 | 0.03 | 0.03 | 91 | 1010.1 |
| 20260507091056 | 48 | 236 | 1.0 | 1.0 | 0.00 | 0.03 | 0.03 | 91 | 1010.3 |
| 20260507090552 | 48 | 277 | 0.0 | 0.0 | 0.00 | 0.03 | 0.03 | 90 | 1010.4 |
| 20260507090050 | 48 | 276 | 0.0 | 1.0 | 0.05 | 0.03 | 0.03 | 90 | 1010.2 |
| 20260507085547 | 49 | 277 | 0.0 | 1.0 | 0.05 | 0.03 | 0.03 | 90 | 1010.4 |
| 20260507085043 | 49 | 280 | 0.0 | 1.0 | 0.00 | 0.02 | 0.02 | 89 | 1010.6 |
| 20260507084540 | 49 | 276 | 1.0 | 2.0 | 0.00 | 0.02 | 0.02 | 89 | 1010.5 |
| 20260507084037 | 49 | 255 | 1.0 | 1.0 | 0.00 | 0.02 | 0.02 | 89 | 1010.6 |
| 20260507083533 | 49 | 267 | 0.0 | 2.0 | 0.00 | 0.02 | 0.02 | 89 | 1010.4 |
| 20260507083030 | 49 | 285 | 1.0 | 2.0 | 0.00 | 0.02 | 0.02 | 89 | 1010.6 |
| 20260507082526 | 49 | 299 | 1.0 | 3.0 | 0.00 | 0.02 | 0.02 | 89 | 1010.4 |
| 20260507082023 | 48 | 252 | 0.0 | 2.0 | 0.00 | 0.02 | 0.02 | 89 | 1010.4 |
| 20260507081519 | 49 | 303 | 1.0 | 1.0 | 0.00 | 0.02 | 0.02 | 89 | 1010.6 |
| 20260507081016 | 49 | 100 | 1.0 | 3.0 | 0.00 | 0.02 | 0.02 | 89 | 1010.5 |
| 20260507080512 | 49 | 293 | 1.0 | 1.0 | 0.00 | 0.02 | 0.02 | 89 | 1010.3 |
| 20260507080008 | 49 | 241 | 1.0 | 1.0 | 0.00 | 0.02 | 0.02 | 89 | 1010.2 |
| 20260507075504 | 49 | 277 | 1.0 | 1.0 | 0.00 | 0.02 | 0.02 | 89 | 1009.9 |
| 20260507075001 | 49 | 347 | 2.0 | 3.0 | 0.00 | 0.02 | 0.02 | 89 | 1010.1 |
| 20260507074457 | 49 | 297 | 0.0 | 1.0 | 0.00 | 0.02 | 0.02 | 88 | 1010.4 |
| 20260507073956 | 49 | 42 | 2.0 | 2.0 | 0.00 | 0.02 | 0.02 | 87 | 1010.0 |
| 20260507073451 | 49 | 13 | 4.0 | 6.0 | 0.07 | 0.02 | 0.02 | 87 | 1010.4 |
| 20260507072948 | 50 | 286 | 0.0 | 2.0 | 0.07 | 0.02 | 0.02 | 85 | 1010.0 |
| 20260507072446 | 50 | 261 | 1.0 | 2.0 | 0.07 | 0.01 | 0.01 | 82 | 1010.0 |
| 20260507071943 | 50 | 181 | 1.0 | 2.0 | 0.07 | 0.01 | 0.01 | 80 | 1010.0 |
| 20260507071440 | 51 | 252 | 1.0 | 5.0 | 0.00 | 0.00 | 0.00 | 80 | 1010.3 |
| 20260507070936 | 51 | 154 | 1.0 | 2.0 | 0.00 | 0.00 | 0.00 | 79 | 1009.9 |
| 20260507070434 | 51 | 248 | 1.0 | 1.0 | 0.00 | 0.00 | 0.00 | 78 | 1009.8 |
| 20260507065930 | 51 | 204 | 1.0 | 2.0 | 0.00 | 0.00 | 0.00 | 78 | 1009.6 |
| 20260507065427 | 51 | 271 | 0.0 | 1.0 | 0.00 | 0.00 | 0.00 | 78 | 1009.6 |
| 20260507064925 | 51 | 321 | 0.0 | 2.0 | 0.00 | 0.00 | 0.00 | 78 | 1009.5 |
| 20260507064423 | 51 | 227 | 1.0 | 2.0 | 0.00 | 0.00 | 0.00 | 78 | 1009.3 |
| 20260507063920 | 51 | 263 | 0.0 | 1.0 | 0.00 | 0.00 | 0.00 | 78 | 1009.6 |
| 20260507063417 | 51 | 215 | 1.0 | 1.0 | 0.00 | 0.00 | 0.00 | 79 | 1009.4 |
| 20260507062914 | 52 | 264 | 0.0 | 2.0 | 0.00 | 0.00 | 0.00 | 79 | 1009.4 |
| 20260507062411 | 52 | 159 | 1.0 | 1.0 | 0.00 | 0.00 | 0.00 | 79 | 1009.6 |
| 20260507061903 | 51 | 142 | 2.0 | 2.0 | 0.00 | 0.00 | 0.00 | 81 | 1009.9 |
| 20260507061401 | 52 | 254 | 1.0 | 2.0 | 0.00 | 0.00 | 0.00 | 84 | 1009.8 |
| 20260507060859 | 52 | 1 | 1.0 | 1.0 | 0.00 | 0.00 | 0.00 | 86 | 1009.7 |
| 20260507060355 | 52 | 308 | 0.0 | 1.0 | 0.00 | 0.00 | 0.00 | 85 | 1009.6 |
| 20260507055852 | 52 | 294 | 0.0 | 1.0 | 0.00 | 0.00 | 0.00 | 85 | 1009.9 |
| 20260507055347 | 53 | 232 | 1.0 | 2.0 | 0.00 | 0.00 | 0.00 | 86 | 1009.4 |
| 20260507054844 | 53 | 204 | 1.0 | 3.0 | 0.00 | 0.00 | 0.00 | 86 | 1009.6 |
| 20260507054340 | 53 | 297 | 0.0 | 1.0 | 0.00 | 0.00 | 0.00 | 85 | 1009.9 |
| 20260507053838 | 53 | 346 | 1.0 | 2.0 | 0.00 | 0.00 | 0.00 | 85 | 1009.7 |
| 20260507053335 | 53 | 273 | 1.0 | 1.0 | 0.00 | 0.00 | 0.00 | 85 | 1009.8 |
| 20260507052834 | 53 | 298 | 0.0 | 2.0 | 0.00 | 0.00 | 0.00 | 85 | 1010.0 |
| 20260507052330 | 53 | 272 | 1.0 | 2.0 | 0.00 | 0.00 | 0.00 | 85 | 1010.2 |
| 20260507051828 | 53 | 286 | 1.0 | 1.0 | 0.00 | 0.00 | 0.00 | 85 | 1010.1 |
| 20260507051326 | 54 | 19 | 1.0 | 2.0 | 0.00 | 0.00 | 0.00 | 85 | 1010.0 |
| 20260507050822 | 53 | 176 | 3.0 | 5.0 | 0.00 | 0.00 | 0.00 | 85 | 1010.0 |
| 20260507050318 | 54 | 215 | 1.0 | 5.0 | 0.00 | 0.00 | 0.00 | 87 | 1010.0 |
| 20260507045816 | 54 | 284 | 1.0 | 1.0 | 0.00 | 0.00 | 0.00 | 88 | 1010.0 |
| 20260507045312 | 54 | 206 | 0.0 | 2.0 | 0.00 | 0.00 | 0.00 | 87 | 1009.9 |
| 20260507044809 | 54 | 273 | 0.0 | 1.0 | 0.00 | 0.00 | 0.00 | 88 | 1009.7 |
| 20260507044306 | 54 | 292 | 0.0 | 2.0 | 0.00 | 0.00 | 0.00 | 89 | 1009.9 |
| 20260507043802 | 55 | 274 | 0.0 | 1.0 | 0.00 | 0.00 | 0.00 | 90 | 1009.9 |
| 20260507043258 | 55 | 282 | 0.0 | 2.0 | 0.00 | 0.00 | 0.00 | 90 | 1009.9 |
| 20260507042755 | 56 | 239 | 0.0 | 5.0 | 0.00 | 0.00 | 0.00 | 90 | 1009.8 |
| 20260507042250 | 56 | 293 | 0.0 | 1.0 | 0.00 | 0.00 | 0.00 | 90 | 1009.5 |
| 20260507041748 | 56 | 292 | 0.0 | 1.0 | 0.00 | 0.00 | 0.00 | 90 | 1009.7 |
| 20260507041244 | 56 | 287 | 0.0 | 2.0 | 0.00 | 0.00 | 0.00 | 89 | 1009.6 |
| 20260507040741 | 56 | 231 | 1.0 | 1.0 | 0.00 | 0.00 | 0.00 | 89 | 1009.7 |
| 20260507040237 | 56 | 280 | 0.0 | 2.0 | 0.00 | 0.00 | 0.00 | 89 | 1009.8 |
| 20260507035733 | 56 | 283 | 1.0 | 5.0 | 0.00 | 0.13 | 0.13 | 89 | 1009.8 |
| 20260507035228 | 57 | 299 | 1.0 | 5.0 | 0.00 | 0.13 | 0.13 | 89 | 1009.9 |
| 20260507034726 | 57 | 302 | 0.0 | 2.0 | 0.00 | 0.13 | 0.13 | 89 | 1010.0 |
| 20260507034223 | 57 | 259 | 0.0 | 2.0 | 0.00 | 0.13 | 0.13 | 90 | 1009.8 |
| 20260507033722 | 57 | 267 | 0.0 | 2.0 | 0.00 | 0.13 | 0.13 | 90 | 1009.8 |
| 20260507033219 | 57 | 294 | 1.0 | 2.0 | 0.00 | 0.13 | 0.13 | 91 | 1009.7 |
| 20260507032716 | 57 | 91 | 2.0 | 3.0 | 0.00 | 0.13 | 0.13 | 92 | 1009.5 |
| 20260507032212 | 57 | 278 | 0.0 | 7.0 | 0.00 | 0.13 | 0.13 | 94 | 1009.5 |
| 20260507031709 | 58 | 16 | 1.0 | 2.0 | 0.00 | 0.13 | 0.13 | 94 | 1009.4 |
| 20260507031205 | 58 | 251 | 0.0 | 3.0 | 0.00 | 0.13 | 0.13 | 95 | 1009.2 |
| 20260507030702 | 58 | 292 | 1.0 | 2.0 | 0.00 | 0.13 | 0.13 | 95 | 1009.0 |
| 20260507030200 | 59 | 304 | 0.0 | 2.0 | 0.00 | 0.13 | 0.13 | 95 | 1009.3 |
| 20260507025657 | 58 | 294 | 0.0 | 1.0 | 0.00 | 0.13 | 0.13 | 95 | 1009.0 |
| 20260507025154 | 58 | 298 | 2.0 | 2.0 | 0.00 | 0.13 | 0.13 | 95 | 1009.0 |
| 20260507024652 | 58 | 302 | 0.0 | 0.0 | 0.00 | 0.13 | 0.13 | 95 | 1009.1 |
| 20260507024149 | 58 | 289 | 1.0 | 2.0 | 0.00 | 0.13 | 0.13 | 95 | 1008.9 |
| 20260507023644 | 58 | 304 | 0.0 | 0.0 | 0.00 | 0.13 | 0.13 | 95 | 1009.0 |
| 20260507023142 | 58 | 304 | 0.0 | 1.0 | 0.00 | 0.13 | 0.13 | 95 | 1008.8 |
| 20260507022639 | 58 | 268 | 0.0 | 2.0 | 0.00 | 0.13 | 0.13 | 95 | 1008.7 |
| 20260507022134 | 58 | 286 | 0.0 | 2.0 | 0.00 | 0.13 | 0.13 | 95 | 1008.9 |
| 20260507021631 | 58 | 309 | 1.0 | 2.0 | 0.00 | 0.13 | 0.13 | 95 | 1008.9 |
| 20260507021126 | 58 | 286 | 1.0 | 1.0 | 0.00 | 0.13 | 0.13 | 95 | 1008.9 |
| 20260507020625 | 58 | 263 | 0.0 | 0.0 | 0.00 | 0.13 | 0.13 | 95 | 1008.9 |
| 20260507020121 | 58 | 243 | 1.0 | 1.0 | 0.00 | 0.13 | 0.13 | 95 | 1008.9 |
| 20260507015619 | 58 | 253 | 1.0 | 2.0 | 0.00 | 0.13 | 0.13 | 95 | 1008.6 |
| 20260507015116 | 58 | 299 | 0.0 | 1.0 | 0.00 | 0.13 | 0.13 | 95 | 1008.8 |
| 20260507014613 | 58 | 238 | 0.0 | 1.0 | 0.00 | 0.13 | 0.13 | 95 | 1009.0 |
| 20260507014109 | 58 | 345 | 1.0 | 2.0 | 0.00 | 0.13 | 0.13 | 95 | 1009.0 |
| 20260507013606 | 58 | 228 | 1.0 | 1.0 | 0.00 | 0.13 | 0.13 | 95 | 1009.0 |
| 20260507013103 | 58 | 295 | 0.0 | 1.0 | 0.00 | 0.13 | 0.13 | 95 | 1008.9 |
| 20260507012600 | 58 | 300 | 1.0 | 3.0 | 0.00 | 0.13 | 0.13 | 95 | 1008.5 |
| 20260507012055 | 58 | 254 | 1.0 | 1.0 | 0.00 | 0.13 | 0.13 | 95 | 1008.8 |
| 20260507011554 | 58 | 294 | 0.0 | 1.0 | 0.00 | 0.13 | 0.13 | 95 | 1008.6 |
| 20260507011050 | 58 | 288 | 1.0 | 1.0 | 0.00 | 0.13 | 0.13 | 95 | 1008.8 |
| 20260507010544 | 58 | 219 | 2.0 | 2.0 | 0.00 | 0.13 | 0.13 | 95 | 1008.9 |
| 20260507010041 | 58 | 297 | 0.0 | 1.0 | 0.00 | 0.13 | 0.13 | 95 | 1009.0 |
| 20260507005538 | 58 | 303 | 1.0 | 1.0 | 0.00 | 0.13 | 0.13 | 95 | 1009.1 |
| 20260507005034 | 58 | 257 | 0.0 | 1.0 | 0.00 | 0.13 | 0.13 | 95 | 1009.1 |
| 20260507004532 | 58 | 280 | 0.0 | 2.0 | 0.00 | 0.13 | 0.13 | 95 | 1008.8 |
| 20260507004029 | 58 | 291 | 0.0 | 2.0 | 0.00 | 0.13 | 0.13 | 95 | 1009.1 |
| 20260507003524 | 58 | 285 | 0.0 | 1.0 | 0.00 | 0.13 | 0.13 | 95 | 1009.0 |
| 20260507003020 | 58 | 285 | 0.0 | 1.0 | 0.00 | 0.13 | 0.13 | 95 | 1009.1 |
| 20260507002516 | 58 | 66 | 1.0 | 2.0 | 0.00 | 0.13 | 0.13 | 95 | 1008.9 |
| 20260507002013 | 58 | 298 | 1.0 | 3.0 | 0.00 | 0.13 | 0.13 | 95 | 1009.0 |
| 20260507001509 | 58 | 293 | 1.0 | 2.0 | 0.00 | 0.13 | 0.13 | 95 | 1009.0 |
| 20260507001007 | 58 | 2 | 1.0 | 7.0 | 0.00 | 0.13 | 0.13 | 95 | 1009.0 |
| 20260507000503 | 58 | 266 | 2.0 | 2.0 | 0.00 | 0.13 | 0.13 | 95 | 1008.7 |
| 20260506235958 | 58 | 270 | 1.0 | 1.0 | 0.00 | 0.13 | 0.13 | 95 | 1008.9 |
| 20260506235456 | 58 | 295 | 0.0 | 2.0 | 0.00 | 0.13 | 0.13 | 95 | 1008.8 |
| 20260506234951 | 58 | 279 | 0.0 | 2.0 | 0.00 | 0.13 | 0.13 | 95 | 1008.7 |
| 20260506234449 | 58 | 294 | 0.0 | 2.0 | 0.00 | 0.13 | 0.13 | 95 | 1008.7 |
| 20260506233946 | 58 | 320 | 0.0 | 2.0 | 0.00 | 0.13 | 0.13 | 95 | 1008.6 |
| 20260506233443 | 58 | 252 | 0.0 | 3.0 | 0.00 | 0.13 | 0.13 | 95 | 1008.7 |
| 20260506232939 | 58 | 248 | 1.0 | 5.0 | 0.00 | 0.13 | 0.13 | 95 | 1008.7 |
| 20260506232436 | 58 | 272 | 0.0 | 1.0 | 0.00 | 0.13 | 0.13 | 95 | 1008.8 |
| 20260506231931 | 58 | 293 | 0.0 | 0.0 | 0.00 | 0.13 | 0.13 | 94 | 1008.7 |
| 20260506231429 | 58 | 241 | 1.0 | 2.0 | 0.00 | 0.13 | 0.13 | 94 | 1008.7 |
| 20260506230926 | 58 | 281 | 0.0 | 1.0 | 0.00 | 0.13 | 0.13 | 94 | 1008.4 |
| 20260506230423 | 58 | 261 | 1.0 | 1.0 | 0.00 | 0.13 | 0.13 | 94 | 1008.7 |
| 20260506225919 | 58 | 279 | 0.0 | 0.0 | 0.05 | 0.13 | 0.13 | 94 | 1008.5 |
| 20260506225417 | 58 | 291 | 1.0 | 1.0 | 0.07 | 0.12 | 0.12 | 94 | 1008.8 |
| 20260506224914 | 58 | 289 | 0.0 | 1.0 | 0.12 | 0.12 | 0.12 | 94 | 1008.5 |
| 20260506224411 | 59 | 282 | 0.0 | 1.0 | 0.05 | 0.11 | 0.11 | 94 | 1008.7 |
| 20260506223907 | 59 | 268 | 0.0 | 2.0 | 0.07 | 0.10 | 0.10 | 94 | 1008.8 |
| 20260506223402 | 59 | 276 | 0.0 | 1.0 | 0.07 | 0.10 | 0.10 | 94 | 1008.6 |
| 20260506222900 | 59 | 280 | 1.0 | 2.0 | 0.00 | 0.09 | 0.09 | 94 | 1008.8 |
| 20260506222356 | 59 | 285 | 1.0 | 1.0 | 0.00 | 0.09 | 0.09 | 94 | 1008.8 |
| 20260506221853 | 59 | 228 | 1.0 | 1.0 | 0.00 | 0.09 | 0.09 | 93 | 1008.8 |
| 20260506221350 | 59 | 232 | 1.0 | 2.0 | 0.00 | 0.09 | 0.09 | 93 | 1009.1 |
| 20260506220848 | 59 | 283 | 0.0 | 2.0 | 0.00 | 0.09 | 0.09 | 93 | 1008.7 |
| 20260506220343 | 59 | 286 | 0.0 | 3.0 | 0.00 | 0.09 | 0.09 | 93 | 1008.9 |
| 20260506215840 | 59 | 266 | 1.0 | 1.0 | 0.00 | 0.09 | 0.09 | 93 | 1009.0 |
| 20260506215336 | 59 | 277 | 1.0 | 2.0 | 0.05 | 0.09 | 0.09 | 93 | 1008.9 |
| 20260506214827 | 59 | 253 | 2.0 | 2.0 | 0.05 | 0.09 | 0.09 | 93 | 1009.0 |
| 20260506214323 | 59 | 225 | 1.0 | 1.0 | 0.00 | 0.08 | 0.08 | 92 | 1008.9 |
| 20260506213822 | 59 | 275 | 0.0 | 1.0 | 0.00 | 0.08 | 0.08 | 92 | 1009.0 |
| 20260506213319 | 59 | 288 | 1.0 | 8.0 | 0.00 | 0.08 | 0.08 | 92 | 1009.1 |
| 20260506212816 | 59 | 290 | 1.0 | 3.0 | 0.00 | 0.08 | 0.08 | 92 | 1009.1 |
| 20260506212312 | 59 | 284 | 0.0 | 2.0 | 0.00 | 0.08 | 0.08 | 92 | 1009.4 |
| 20260506211807 | 59 | 285 | 1.0 | 3.0 | 0.07 | 0.08 | 0.08 | 92 | 1009.5 |
| 20260506211303 | 59 | 303 | 2.0 | 5.0 | 0.07 | 0.08 | 0.08 | 92 | 1009.3 |
| 20260506210800 | 59 | 284 | 0.0 | 2.0 | 0.00 | 0.07 | 0.07 | 92 | 1009.3 |
| 20260506210257 | 59 | 255 | 2.0 | 2.0 | 0.00 | 0.07 | 0.07 | 91 | 1009.3 |
| 20260506205754 | 59 | 283 | 0.0 | 3.0 | 0.00 | 0.07 | 0.07 | 91 | 1009.5 |
| 20260506205250 | 59 | 112 | 6.0 | 7.0 | 0.00 | 0.07 | 0.07 | 91 | 1009.6 |
| 20260506204747 | 59 | 271 | 1.0 | 5.0 | 0.00 | 0.07 | 0.07 | 91 | 1009.4 |
| 20260506204245 | 59 | 216 | 0.0 | 2.0 | 0.00 | 0.07 | 0.07 | 91 | 1009.6 |
| 20260506203742 | 59 | 269 | 0.0 | 1.0 | 0.00 | 0.07 | 0.07 | 91 | 1009.6 |
| 20260506203239 | 59 | 43 | 1.0 | 2.0 | 0.00 | 0.07 | 0.07 | 91 | 1009.6 |
| 20260506202736 | 60 | 263 | 1.0 | 6.0 | 0.00 | 0.07 | 0.07 | 91 | 1009.8 |
| 20260506202233 | 60 | 268 | 1.0 | 2.0 | 0.00 | 0.07 | 0.07 | 90 | 1009.5 |
| 20260506201730 | 60 | 261 | 1.0 | 2.0 | 0.00 | 0.07 | 0.07 | 90 | 1009.8 |
| 20260506201227 | 59 | 313 | 2.0 | 2.0 | 0.00 | 0.07 | 0.07 | 90 | 1009.7 |
| 20260506200724 | 60 | 216 | 1.0 | 6.0 | 0.05 | 0.07 | 0.07 | 90 | 1009.7 |
| 20260506200220 | 60 | 276 | 3.0 | 5.0 | 0.00 | 0.06 | 0.06 | 89 | 1009.6 |
| 20260506195716 | 60 | 300 | 2.0 | 3.0 | 0.00 | 0.06 | 0.06 | 90 | 1009.8 |
| 20260506195213 | 60 | 285 | 0.0 | 3.0 | 0.00 | 0.06 | 0.06 | 90 | 1009.9 |
| 20260506194710 | 60 | 192 | 2.0 | 3.0 | 0.00 | 0.06 | 0.06 | 90 | 1009.7 |
| 20260506194207 | 60 | 294 | 1.0 | 7.0 | 0.00 | 0.06 | 0.06 | 90 | 1009.8 |
| 20260506193705 | 61 | 284 | 0.0 | 2.0 | 0.00 | 0.06 | 0.06 | 90 | 1009.8 |
| 20260506193201 | 61 | 285 | 0.0 | 2.0 | 0.07 | 0.06 | 0.06 | 89 | 1009.8 |
| 20260506192658 | 61 | 286 | 1.0 | 3.0 | 0.07 | 0.06 | 0.06 | 89 | 1009.7 |
| 20260506192154 | 61 | 318 | 1.0 | 3.0 | 0.05 | 0.05 | 0.05 | 89 | 1009.9 |
| 20260506191651 | 61 | 145 | 1.0 | 7.0 | 0.05 | 0.05 | 0.05 | 89 | 1009.9 |
| 20260506191147 | 61 | 290 | 0.0 | 2.0 | 0.07 | 0.04 | 0.04 | 88 | 1009.9 |
| 20260506190645 | 62 | 261 | 2.0 | 3.0 | 0.07 | 0.04 | 0.04 | 87 | 1009.9 |
| 20260506190141 | 62 | 187 | 2.0 | 2.0 | 0.00 | 0.03 | 0.03 | 87 | 1009.8 |
| 20260506185638 | 62 | 258 | 1.0 | 2.0 | 0.05 | 0.03 | 0.03 | 86 | 1009.9 |
| 20260506185134 | 62 | 301 | 1.0 | 2.0 | 0.05 | 0.03 | 0.03 | 85 | 1010.0 |
| 20260506184632 | 63 | 236 | 1.0 | 2.0 | 0.07 | 0.02 | 0.02 | 84 | 1009.8 |
| 20260506184129 | 63 | 307 | 2.0 | 3.0 | 0.07 | 0.02 | 0.02 | 82 | 1010.1 |
| 20260506183626 | 63 | 316 | 0.0 | 3.0 | 0.07 | 0.01 | 0.01 | 81 | 1010.3 |
| 20260506183122 | 64 | 252 | 1.0 | 2.0 | 0.07 | 0.01 | 0.01 | 80 | 1010.3 |
| 20260506182620 | 65 | 113 | 1.0 | 3.0 | 0.00 | 0.00 | 0.00 | 79 | 1010.2 |
| 20260506182116 | 65 | 305 | 0.0 | 2.0 | 0.00 | 0.00 | 0.00 | 77 | 1010.6 |
| 20260506181614 | 66 | 303 | 1.0 | 2.0 | 0.00 | 0.00 | 0.00 | 76 | 1010.4 |
| 20260506181111 | 66 | 287 | 1.0 | 3.0 | 0.00 | 0.00 | 0.00 | 75 | 1010.2 |
| 20260506180608 | 67 | 284 | 1.0 | 3.0 | 0.00 | 0.00 | 0.00 | 74 | 1010.3 |
| 20260506180105 | 67 | 294 | 3.0 | 8.0 | 0.00 | 0.00 | 0.00 | 71 | 1010.4 |
| 20260506175601 | 68 | 321 | 1.0 | 14.0 | 0.00 | 0.00 | 0.00 | 70 | 1010.7 |
| 20260506175057 | 68 | 297 | 3.0 | 6.0 | 0.00 | 0.00 | 0.00 | 68 | 1010.5 |
| 20260506174556 | 69 | 295 | 4.0 | 9.0 | 0.00 | 0.00 | 0.00 | 67 | 1010.6 |
| 20260506174051 | 70 | 301 | 1.0 | 3.0 | 0.00 | 0.00 | 0.00 | 66 | 1010.4 |
| 20260506173549 | 71 | 317 | 3.0 | 5.0 | 0.00 | 0.00 | 0.00 | 63 | 1010.5 |
| 20260506173046 | 72 | 234 | 1.0 | 3.0 | 0.00 | 0.00 | 0.00 | 59 | 1010.2 |
| 20260506172544 | 72 | 246 | 1.0 | 8.0 | 0.00 | 0.00 | 0.00 | 59 | 1010.2 |
| 20260506172040 | 72 | 288 | 2.0 | 6.0 | 0.00 | 0.00 | 0.00 | 58 | 1010.3 |
| 20260506171537 | 73 | 354 | 6.0 | 8.0 | 0.00 | 0.00 | 0.00 | 57 | 1010.1 |
| 20260506171035 | 73 | 249 | 2.0 | 5.0 | 0.00 | 0.00 | 0.00 | 57 | 1010.2 |
| 20260506170532 | 72 | 324 | 2.0 | 6.0 | 0.00 | 0.00 | 0.00 | 57 | 1010.2 |
| 20260506170024 | 72 | 296 | 3.0 | 6.0 | 0.00 | 0.00 | 0.00 | 56 | 1010.2 |
| 20260506165522 | 73 | 196 | 3.0 | 5.0 | 0.00 | 0.00 | 0.00 | 57 | 1010.6 |
| 20260506165018 | 73 | 314 | 3.0 | 6.0 | 0.00 | 0.00 | 0.00 | 57 | 1010.5 |
| 20260506164515 | 72 | 125 | 4.0 | 8.0 | 0.00 | 0.00 | 0.00 | 56 | 1010.7 |
| 20260506164012 | 72 | 264 | 5.0 | 9.0 | 0.00 | 0.00 | 0.00 | 57 | 1010.6 |
| 20260506163507 | 71 | 308 | 3.0 | 5.0 | 0.00 | 0.00 | 0.00 | 60 | 1010.7 |
| 20260506163002 | 71 | 281 | 6.0 | 13.0 | 0.00 | 0.00 | 0.00 | 58 | 1010.9 |
| 20260506162459 | 71 | 293 | 1.0 | 11.0 | 0.00 | 0.00 | 0.00 | 60 | 1010.9 |
| 20260506161951 | 72 | 267 | 2.0 | 9.0 | 0.00 | 0.00 | 0.00 | 59 | 1010.7 |
| 20260506161449 | 71 | 301 | 1.0 | 6.0 | 0.00 | 0.00 | 0.00 | 58 | 1010.7 |
| 20260506160946 | 71 | 274 | 3.0 | 5.0 | 0.00 | 0.00 | 0.00 | 59 | 1010.8 |
| 20260506160444 | 71 | 34 | 4.0 | 6.0 | 0.00 | 0.00 | 0.00 | 59 | 1011.2 |
| 20260506155941 | 71 | 338 | 2.0 | 6.0 | 0.00 | 0.00 | 0.00 | 59 | 1011.2 |
| 20260506155438 | 71 | 306 | 1.0 | 7.0 | 0.00 | 0.00 | 0.00 | 60 | 1011.2 |
| 20260506153605 | 70 | 190 | 3.0 | 5.0 | 0.00 | 0.00 | 0.00 | 62 | 1011.4 |
| 20260506153103 | 70 | 165 | 1.0 | 6.0 | 0.00 | 0.00 | 0.00 | 62 | 1011.5 |
| 20260506152559 | 70 | 263 | 1.0 | 2.0 | 0.00 | 0.00 | 0.00 | 62 | 1011.5 |
| 20260506152057 | 70 | 324 | 2.0 | 3.0 | 0.00 | 0.00 | 0.00 | 62 | 1011.6 |
| 20260506151555 | 70 | 291 | 2.0 | 7.0 | 0.00 | 0.00 | 0.00 | 62 | 1011.8 |
| 20260506151052 | 70 | 257 | 1.0 | 2.0 | 0.00 | 0.00 | 0.00 | 62 | 1012.0 |
| 20260506150548 | 71 | 78 | 3.0 | 5.0 | 0.00 | 0.00 | 0.00 | 62 | 1011.8 |
| 20260506150045 | 70 | 257 | 5.0 | 7.0 | 0.00 | 0.00 | 0.00 | 62 | 1011.9 |
| 20260506145542 | 70 | 198 | 2.0 | 5.0 | 0.00 | 0.00 | 0.00 | 63 | 1012.0 |
| 20260506145040 | 70 | 153 | 3.0 | 5.0 | 0.00 | 0.00 | 0.00 | 63 | 1011.9 |
| 20260506144536 | 70 | 338 | 3.0 | 5.0 | 0.00 | 0.00 | 0.00 | 64 | 1011.8 |
| 20260506144033 | 70 | 278 | 1.0 | 2.0 | 0.00 | 0.00 | 0.00 | 64 | 1011.9 |
| 20260506143531 | 70 | 295 | 1.0 | 2.0 | 0.00 | 0.00 | 0.00 | 64 | 1011.8 |
| 20260506143029 | 69 | 216 | 2.0 | 7.0 | 0.00 | 0.00 | 0.00 | 66 | 1012.0 |
| 20260506142527 | 69 | 216 | 1.0 | 3.0 | 0.00 | 0.00 | 0.00 | 66 | 1012.0 |
| 20260506142025 | 68 | 174 | 0.0 | 5.0 | 0.00 | 0.00 | 0.00 | 66 | 1011.9 |
| 20260506141522 | 68 | 283 | 2.0 | 5.0 | 0.00 | 0.00 | 0.00 | 67 | 1011.9 |
| 20260506141021 | 68 | 298 | 2.0 | 2.0 | 0.00 | 0.00 | 0.00 | 68 | 1012.0 |
| 20260506140517 | 68 | 295 | 2.0 | 5.0 | 0.00 | 0.00 | 0.00 | 69 | 1011.9 |
| 20260506140015 | 67 | 296 | 1.0 | 6.0 | 0.00 | 0.00 | 0.00 | 70 | 1011.9 |
| 20260506135511 | 68 | 299 | 2.0 | 3.0 | 0.00 | 0.00 | 0.00 | 70 | 1011.8 |
| 20260506135008 | 68 | 285 | 1.0 | 5.0 | 0.00 | 0.00 | 0.00 | 69 | 1012.0 |
| 20260506134504 | 68 | 303 | 3.0 | 5.0 | 0.00 | 0.00 | 0.00 | 70 | 1012.2 |
| 20260506134000 | 66 | 230 | 2.0 | 2.0 | 0.00 | 0.00 | 0.00 | 71 | 1011.8 |
| 20260506133457 | 66 | 352 | 2.0 | 3.0 | 0.00 | 0.00 | 0.00 | 72 | 1012.1 |
| 20260506132954 | 66 | 164 | 2.0 | 3.0 | 0.00 | 0.00 | 0.00 | 71 | 1012.0 |
| 20260506132451 | 66 | 312 | 2.0 | 8.0 | 0.00 | 0.00 | 0.00 | 72 | 1012.0 |
| 20260506131949 | 65 | 182 | 0.0 | 3.0 | 0.00 | 0.00 | 0.00 | 73 | 1012.6 |
| 20260506131445 | 66 | 263 | 0.0 | 1.0 | 0.00 | 0.00 | 0.00 | 72 | 1012.7 |
| 20260506130942 | 65 | 143 | 1.0 | 3.0 | 0.00 | 0.00 | 0.00 | 73 | 1012.6 |
| 20260506130439 | 64 | 261 | 1.0 | 1.0 | 0.00 | 0.00 | 0.00 | 74 | 1012.6 |
| 20260506125937 | 64 | 146 | 2.0 | 3.0 | 0.00 | 0.00 | 0.00 | 74 | 1012.6 |
| 20260506125435 | 64 | 293 | 0.0 | 5.0 | 0.00 | 0.00 | 0.00 | 75 | 1012.6 |
| 20260506124933 | 64 | 186 | 2.0 | 3.0 | 0.00 | 0.00 | 0.00 | 74 | 1012.3 |
| 20260506124430 | 64 | 297 | 1.0 | 2.0 | 0.00 | 0.00 | 0.00 | 74 | 1012.8 |
| 20260506123928 | 65 | 286 | 0.0 | 2.0 | 0.00 | 0.00 | 0.00 | 73 | 1012.3 |
| 20260506123425 | 65 | 300 | 2.0 | 8.0 | 0.00 | 0.00 | 0.00 | 73 | 1012.7 |
| 20260506122923 | 64 | 291 | 1.0 | 2.0 | 0.00 | 0.00 | 0.00 | 73 | 1012.4 |
| 20260506122419 | 64 | 265 | 1.0 | 5.0 | 0.00 | 0.00 | 0.00 | 74 | 1012.7 |
| 20260506121918 | 64 | 275 | 0.0 | 3.0 | 0.00 | 0.00 | 0.00 | 74 | 1012.7 |
| 20260506121414 | 64 | 108 | 2.0 | 6.0 | 0.00 | 0.00 | 0.00 | 73 | 1012.7 |
| 20260506120911 | 64 | 281 | 0.0 | 1.0 | 0.00 | 0.00 | 0.00 | 74 | 1012.6 |
| 20260506120409 | 63 | 262 | 0.0 | 3.0 | 0.00 | 0.00 | 0.00 | 75 | 1012.6 |
| 20260506115906 | 63 | 298 | 0.0 | 2.0 | 0.00 | 0.00 | 0.00 | 75 | 1012.3 |
| 20260506115404 | 63 | 164 | 1.0 | 3.0 | 0.00 | 0.00 | 0.00 | 75 | 1012.4 |
| 20260506114902 | 63 | 293 | 2.0 | 5.0 | 0.00 | 0.00 | 0.00 | 75 | 1012.6 |
| 20260506114359 | 63 | 268 | 1.0 | 2.0 | 0.00 | 0.00 | 0.00 | 76 | 1012.7 |
| 20260506113858 | 62 | 256 | 1.0 | 2.0 | 0.00 | 0.00 | 0.00 | 76 | 1012.7 |
| 20260506113355 | 61 | 122 | 2.0 | 2.0 | 0.00 | 0.00 | 0.00 | 77 | 1012.9 |
| 20260506112851 | 60 | 282 | 2.0 | 2.0 | 0.00 | 0.00 | 0.00 | 79 | 1012.8 |
| 20260506112349 | 60 | 286 | 0.0 | 7.0 | 0.00 | 0.00 | 0.00 | 79 | 1012.8 |
| 20260506111846 | 61 | 332 | 1.0 | 2.0 | 0.00 | 0.00 | 0.00 | 79 | 1013.3 |
| 20260506111344 | 60 | 276 | 0.0 | 2.0 | 0.00 | 0.00 | 0.00 | 79 | 1013.3 |
| 20260506110841 | 60 | 250 | 1.0 | 1.0 | 0.00 | 0.00 | 0.00 | 79 | 1012.9 |
| 20260506110338 | 60 | 66 | 3.0 | 5.0 | 0.00 | 0.00 | 0.00 | 80 | 1013.1 |
| 20260506105835 | 60 | 253 | 0.0 | 1.0 | 0.00 | 0.00 | 0.00 | 80 | 1012.9 |